Regional Weather Roundup
Issued by NWS Newport/Morehead, NC

Current Version | Previous Version | Graphics & Text | Print | Product List | Glossary On
Versions: 1 2 3 4 5 6 7 8 9 10 11 12 13 14 15 16 17 18 19 20 21 22 23 24 25 26 27 28 29 30 31 32 33 34 35 36 37 38 39 40 41 42 43 44 45 46 47 48 49 50
000 ASUS42 KMHX 051125 RWRMHX WEATHER ROUNDUP FOR EASTERN NORTH CAROLINA NATIONAL WEATHER SERVICE NEWPORT/MOREHEAD CITY NC 700 AM EDT SUN JUL 05 2015 NOTE: "FAIR" INDICATES FEW OR NO CLOUDS BELOW 12,000 FEET WITH NO SIGNIFICANT WEATHER AND/OR OBSTRUCTIONS TO VISIBILITY NCZ015>017-031-032-045>047-102-103-051200- NORTH COAST CITY SKY/WX TMP DP RH WIND PRES REMARKS EDENTON PTSUNNY 76 71 86 W6 30.10R ELIZABETH CITY MOSUNNY 73 71 93 SW5 30.09R KITTY HAWK PTSUNNY 77 72 84 CALM 30.09R MANTEO PTSUNNY 76 71 85 CALM 30.11R $$ NCZ045>047-081-094-103-104-051200- CENTRAL COAST CITY SKY/WX TMP DP RH WIND PRES REMARKS FRISCO PTSUNNY 76 74 93 W10 30.11R SWANQUARTER N/A 79 N/A N/A SW6G15 30.09R $$ NCZ095-097-098-100-101-051200- SOUTHERN COAST CITY SKY/WX TMP DP RH WIND PRES REMARKS BEAUFORT PTSUNNY 79 70 74 SW9G20 30.12R CEDAR ISLAND N/A 79 N/A N/A S7 30.15S JACKSONVILLE MOCLDY 75 68 78 SW5 30.12R PINEY ISLAND PTSUNNY N/A N/A N/A S6 30.12R WILMINGTON MOCLDY 76 66 71 SW7 30.13R $$ NCZ011>013-027>030-043-044-078>080-089-090>093-098-051200- COASTAL PLAIN CITY SKY/WX TMP DP RH WIND PRES REMARKS AHOSKIE SUNNY N/A N/A N/A CALM 30.10R HAZE CLINTON CLOUDY 74 68 81 CALM 30.13R ELIZABETHTOWN CLOUDY 73 68 84 CALM 30.12R GOLDSBORO CLOUDY 76 71 84 SW6 30.09R GREENVILLE PTSUNNY 75 73 94 W6 30.11S HAVELOCK PTSUNNY 77 67 71 SW7 30.13R KENANSVILLE MOCLDY 73 67 80 CALM 30.13R KINSTON CLOUDY 77 72 83 SW3 30.11R NEW BERN PTSUNNY 77 70 79 S5 30.12R RICHLANDS MOCLDY 75 66 73 S6 30.13R ROCKY MOUNT MOSUNNY 74 72 93 S8 30.10R WASHINGTON PTSUNNY 76 73 91 W5 30.11R WHITEVILLE CLOUDY 72 67 84 S3 30.12R $$ AMZ130-135-150-152-154-156-158-170-250-252-270-ANZ085-086-088-633-658-670-051200- MARINE OBSERVATIONS STATION/POSITION TIME TEMP WIND PRES WAVE SWELL AIR SEA DIR/SP/G HT/PER HT/PER (UTC) (F) (DEG/KT/KT) (MB) (FT/S) (FT/S) CHESAPEAKE LIGHT 1100 80 320/ 1/ 2 1019.5 64 E VA BEACH 1050 77 76 320/ 8/ 12 1018.6 4/ 7 3/ 7 DUCK 1100 78 74 270/ 6/ 8 N/A 2 E DUCK 1011 77 N/A 2/14 2/14 OREGON INLET 1100 78 79 210/ 4/ 6 1019.3 13E OREGON INLT 1100 75 N/A 3/ 7 2/13 HATTERAS CG 1100 78 79 230/ 8/ 11 1019.4 DIAMOND BUOY 1050 80 81 230/ 17/ 21 1019.4 5/ 6 2/ 9 CAPE LOOKOUT 1100 80 230/ 9/ 12 1020.1 BEAUFORT LAB 1100 80 80 220/ 5/ 6 1019.4 30 SE NEW RVR IN NOT AVBL 27 SE WRIGHTSVLE 1100 80 240/ 8/ 10 N/A 5 SE WRIGHTSVLE 1008 78 78 280/ 6/ 8 1020.0 225 S CAPE HAT 1050 81 80 240/ 6/ 8 1022.6 4/ 6 3/ 6 41 SE CHARLESTON 1050 81 81 240/ 16/ 17 1019.9 3/ 9 2/ 9 $$

USA.gov is the U.S. government's official web portal to all federal, state and local government web resources and services.